Date,TemperatureHighF,TemperatureAvgF,TemperatureLowF,DewpointHighF,DewpointAvgF,DewpointLowF,HumidityHigh,HumidityAvg,HumidityLow,PressureMaxIn,PressureMinIn,WindSpeedMaxMPH,WindSpeedAvgMPH,GustSpeedMaxMPH,PrecipitationSumIn
2013-2-1,18.7,14.6,9.1,13.0,8.7,2.8,88,77,66,30.35,29.93,12,4,18,0.00
2013-2-2,23.5,17.4,11.8,20.1,13.0,6.4,90,83,75,30.29,30.00,7,2,12,0.00
2013-2-3,22.1,13.3,-0.2,18.1,8.4,-2.9,91,81,65,30.08,29.92,10,2,18,0.01
2013-2-4,23.9,19.8,16.0,19.8,16.3,9.9,91,86,74,30.10,29.93,4,1,6,0.00
2013-2-5,27.2,22.4,15.9,25.1,18.7,13.7,93,86,67,30.00,29.87,7,2,12,0.00
2013-2-6,32.4,22.7,7.9,25.2,16.0,5.7,95,76,51,30.36,30.00,8,1,12,0.03
2013-2-7,39.3,30.2,23.5,29.3,24.3,19.1,86,78,66,30.34,29.90,12,4,16,0.04
2013-2-8,30.8,26.8,16.5,29.2,23.1,13.4,95,86,74,30.40,29.81,11,3,18,0.00
2013-2-9,32.2,20.5,8.1,20.8,15.6,5.7,94,82,55,30.50,30.35,5,1,8,0.13
2013-2-10,38.4,29.4,15.8,36.5,25.1,14.2,96,85,65,30.36,29.74,7,2,12,0.22
2013-2-11,46.6,38.3,31.9,43.6,32.1,25.3,96,78,68,29.92,29.60,18,7,30,0.03
2013-2-12,33.2,31.2,28.7,25.8,24.3,21.8,79,75,70,30.10,29.92,13,4,20,0.00
2013-2-13,38.4,30.0,26.1,27.3,23.7,21.1,92,77,61,29.98,29.79,8,2,10,0.00
2013-2-14,40.2,34.0,24.6,35.8,30.1,23.1,96,86,75,29.89,29.73,16,3,24,0.01
2013-2-15,35.0,28.8,22.9,28.5,18.7,12.9,81,66,50,30.17,29.89,14,3,20,0.00
2013-2-16,27.0,20.5,15.8,21.5,14.8,10.2,94,79,56,30.16,30.03,7,2,13,0.02
2013-2-17,25.0,16.7,9.6,14.7,8.5,4.8,89,71,48,30.28,30.11,6,2,12,0.00
2013-2-18,47.4,30.9,10.3,35.8,21.9,7.2,89,70,51,30.28,29.66,8,3,13,0.00
2013-2-19,46.0,28.9,18.4,41.0,23.6,12.2,93,80,65,29.99,29.47,19,7,29,0.13
2013-2-20,22.7,20.3,16.5,16.3,11.9,6.2,81,70,59,30.30,29.99,13,5,22,0.00
2013-2-21,26.7,22.3,20.8,17.6,15.4,13.1,83,75,61,30.45,30.30,12,4,16,0.00
2013-2-22,33.6,27.5,21.9,32.5,25.1,17.2,97,91,80,30.33,29.95,15,4,24,0.01
2013-2-23,33.7,29.8,19.8,31.2,22.8,16.6,91,75,63,29.97,29.92,10,3,15,0.05
2013-2-24,36.6,28.0,20.4,27.6,22.7,17.4,94,81,64,30.21,29.95,10,2,17,0.02
2013-2-25,40.4,28.4,15.0,27.6,21.5,12.9,97,77,55,30.29,30.15,8,1,10,0.04
2013-2-26,34.5,31.5,28.5,31.9,27.2,21.5,96,84,71,30.17,29.53,18,8,30,0.63
2013-2-27,36.1,33.3,32.1,33.9,32.1,31.3,97,95,89,29.62,29.49,9,2,13,0.48
2013-2-28,38.0,33.4,30.2,33.1,30.4,25.9,97,89,80,30.00,29.60,7,2,15,0.37